JAL2083 RJOO-ROAH

Flight info

Callsign JAL2083
Flight time N/A
Altitude 40000
Route TIGER MAIKO Y75 ONC Y525 IHEYA
Aircraft A359/H-SDE2E3GHIJ3J4J5LM1ORWXY/LB1D1

Departure

Time N/A
Airport Osaka Itami International Airport (RJOO)

Arrival

Time 2026-04-17 13:15
Airport Naha International Airport (ROAH)
Time Latitude Longitude Altitude Speed Heading
2026-04-17 11:37 34.20606 134.36976 27153 ft 390 kts 233°
2026-04-17 11:38 34.18846 134.34466 27626 ft 391 kts 233°
2026-04-17 11:38 34.17087 134.31961 28115 ft 392 kts 233°
2026-04-17 11:38 34.15313 134.29440 28562 ft 394 kts 233°
2026-04-17 11:38 34.13536 134.26915 28981 ft 396 kts 234°
2026-04-17 11:39 34.11746 134.24374 29328 ft 399 kts 233°
2026-04-17 11:39 34.09944 134.21821 29761 ft 401 kts 234°
2026-04-17 11:39 34.08162 134.19293 30243 ft 401 kts 234°
2026-04-17 11:39 34.06350 134.16719 30637 ft 403 kts 234°
2026-04-17 11:40 34.04534 134.14143 31077 ft 403 kts 234°
2026-04-17 11:40 34.02723 134.11578 31555 ft 402 kts 235°
2026-04-17 11:40 34.00906 134.09006 32025 ft 403 kts 235°
2026-04-17 11:40 33.98740 134.05945 32487 ft 405 kts 235°
2026-04-17 11:41 33.96917 134.03382 32944 ft 404 kts 235°
2026-04-17 11:41 33.95077 134.00801 33407 ft 404 kts 236°
2026-04-17 11:41 33.93254 133.98234 33822 ft 404 kts 236°
2026-04-17 11:41 33.92044 133.96525 34067 ft 405 kts 236°
2026-04-17 11:42 33.90220 133.93948 34382 ft 407 kts 236°
2026-04-17 11:42 33.87764 133.90496 34605 ft 412 kts 235°
2026-04-17 11:42 33.86497 133.88721 34748 ft 414 kts 235°
2026-04-17 11:42 33.84638 133.86104 35092 ft 413 kts 235°
2026-04-17 11:43 33.82769 133.83458 35397 ft 412 kts 236°
2026-04-17 11:43 33.80532 133.79835 36047 ft 405 kts 240°
2026-04-17 11:43 33.79459 133.78001 36316 ft 404 kts 240°
2026-04-17 11:43 33.77860 133.75225 36607 ft 405 kts 240°
2026-04-17 11:44 33.76265 133.72431 36937 ft 406 kts 240°
2026-04-17 11:44 33.74673 133.69641 37288 ft 405 kts 240°
2026-04-17 11:44 33.72567 133.65954 37824 ft 404 kts 240°
2026-04-17 11:44 33.70978 133.63173 38208 ft 403 kts 240°
2026-04-17 11:45 33.69392 133.60397 38607 ft 402 kts 240°
2026-04-17 11:45 33.68346 133.58568 38847 ft 402 kts 240°
2026-04-17 11:45 33.66765 133.55802 39085 ft 402 kts 240°
2026-04-17 11:45 33.65185 133.53045 39348 ft 402 kts 239°
2026-04-17 11:46 33.63592 133.50280 39623 ft 401 kts 239°
2026-04-17 11:46 33.62016 133.47534 39913 ft 399 kts 239°
2026-04-17 11:46 33.60439 133.44786 40036 ft 402 kts 240°
2026-04-17 11:46 33.58870 133.42033 40248 ft 399 kts 239°
2026-04-17 11:47 33.55709 133.36579 40135 ft 398 kts 239°
2026-04-17 11:47 33.52560 133.31149 40135 ft 400 kts 239°
2026-04-17 11:48 33.49396 133.25674 40146 ft 399 kts 239°
2026-04-17 11:48 33.46225 133.20195 40156 ft 402 kts 239°
2026-04-17 11:49 33.43022 133.14669 40151 ft 405 kts 239°
2026-04-17 11:49 33.39845 133.09190 40138 ft 402 kts 239°
2026-04-17 11:50 33.36654 133.03719 40136 ft 400 kts 239°
2026-04-17 11:50 33.33468 132.98261 40121 ft 400 kts 239°
2026-04-17 11:51 33.30287 132.92818 40115 ft 399 kts 239°
2026-04-17 11:51 33.27109 132.87380 40138 ft 399 kts 239°
2026-04-17 11:52 33.23953 132.81982 40109 ft 399 kts 239°
2026-04-17 11:52 33.20779 132.76551 40124 ft 399 kts 239°
2026-04-17 11:53 33.17592 132.71115 40121 ft 399 kts 238°
2026-04-17 11:53 33.14402 132.65687 40118 ft 400 kts 238°
2026-04-17 11:54 33.11224 132.60296 40110 ft 401 kts 238°
2026-04-17 11:54 33.08018 132.54863 40109 ft 400 kts 238°
2026-04-17 11:55 33.04816 132.49438 40107 ft 400 kts 238°
2026-04-17 11:55 33.01610 132.44014 40104 ft 400 kts 238°
2026-04-17 11:56 32.97989 132.38965 40114 ft 408 kts 228°
2026-04-17 11:56 32.93300 132.35034 40109 ft 419 kts 217°
2026-04-17 11:57 32.88095 132.31825 40107 ft 422 kts 214°
2026-04-17 11:57 32.82814 132.28731 40107 ft 423 kts 214°
2026-04-17 11:58 32.77547 132.25628 40107 ft 422 kts 215°
2026-04-17 11:58 32.72327 132.22524 40107 ft 422 kts 215°
2026-04-17 11:59 32.67089 132.19399 40113 ft 423 kts 215°
2026-04-17 11:59 32.61891 132.16119 40108 ft 420 kts 218°
2026-04-17 12:00 32.56936 132.12508 40110 ft 418 kts 219°
2026-04-17 12:00 32.52021 132.08897 40104 ft 419 kts 219°
2026-04-17 12:01 32.47031 132.05315 40107 ft 420 kts 218°
2026-04-17 12:01 32.42015 132.01765 40107 ft 420 kts 218°
2026-04-17 12:02 32.36998 131.98222 40108 ft 420 kts 218°
2026-04-17 12:02 32.32009 131.94701 40113 ft 420 kts 218°
2026-04-17 12:03 32.26983 131.91156 40108 ft 420 kts 218°
2026-04-17 12:03 32.21965 131.87622 40080 ft 420 kts 218°
2026-04-17 12:04 32.16933 131.84082 40111 ft 421 kts 218°
2026-04-17 12:04 32.11933 131.80569 40110 ft 421 kts 218°
2026-04-17 12:05 32.06897 131.77035 40137 ft 422 kts 218°
2026-04-17 12:05 32.01864 131.73511 40098 ft 421 kts 218°
2026-04-17 12:06 31.96822 131.69982 40093 ft 421 kts 218°
2026-04-17 12:06 31.91821 131.66494 40088 ft 421 kts 218°
2026-04-17 12:07 31.86782 131.62973 40082 ft 422 kts 218°
2026-04-17 12:07 31.81730 131.59447 40080 ft 423 kts 218°
2026-04-17 12:08 31.76668 131.55921 40095 ft 422 kts 218°
2026-04-17 12:08 31.71651 131.52434 40081 ft 422 kts 217°
2026-04-17 12:09 31.66591 131.48919 40087 ft 423 kts 217°
2026-04-17 12:09 31.61532 131.45409 40099 ft 423 kts 217°
2026-04-17 12:10 31.56464 131.41899 40090 ft 423 kts 217°
2026-04-17 12:10 31.51422 131.38410 40096 ft 424 kts 217°
2026-04-17 12:11 31.46338 131.34898 40094 ft 424 kts 217°
2026-04-17 12:12 31.38710 131.29637 40081 ft 424 kts 217°
2026-04-17 12:12 31.33617 131.26128 40088 ft 425 kts 217°
2026-04-17 12:13 31.28556 131.22647 40081 ft 425 kts 217°
2026-04-17 12:13 31.23455 131.19143 40085 ft 425 kts 217°
2026-04-17 12:14 31.18360 131.15647 40082 ft 425 kts 217°
2026-04-17 12:14 31.13254 131.12148 40088 ft 425 kts 217°
2026-04-17 12:15 31.08158 131.08661 40060 ft 424 kts 217°
2026-04-17 12:15 31.03094 131.05198 40074 ft 425 kts 217°
2026-04-17 12:16 30.97985 131.01710 40076 ft 426 kts 217°
2026-04-17 12:16 30.92867 130.98221 40070 ft 426 kts 217°
2026-04-17 12:17 30.87756 130.94739 40061 ft 427 kts 216°
2026-04-17 12:17 30.82646 130.91263 40067 ft 428 kts 216°
2026-04-17 12:18 30.77501 130.87770 40049 ft 427 kts 217°
2026-04-17 12:18 30.72371 130.84289 40046 ft 428 kts 216°
2026-04-17 12:19 30.67232 130.80806 40051 ft 428 kts 216°
2026-04-17 12:19 30.62113 130.77342 40051 ft 428 kts 216°
2026-04-17 12:20 30.56964 130.73862 40030 ft 428 kts 216°
2026-04-17 12:20 30.51798 130.70375 40053 ft 430 kts 216°
2026-04-17 12:21 30.46626 130.66887 40057 ft 430 kts 216°
2026-04-17 12:21 30.41481 130.63423 40056 ft 430 kts 216°
2026-04-17 12:22 30.36302 130.59940 40055 ft 431 kts 216°
2026-04-17 12:22 30.31108 130.56454 40053 ft 432 kts 216°
2026-04-17 12:23 30.25911 130.52971 40052 ft 431 kts 216°
2026-04-17 12:23 30.20714 130.49490 40045 ft 432 kts 215°
2026-04-17 12:24 30.15541 130.46033 40046 ft 432 kts 215°
2026-04-17 12:24 30.10336 130.42560 40052 ft 432 kts 215°
2026-04-17 12:25 30.05139 130.39094 40025 ft 431 kts 215°
2026-04-17 12:25 29.99933 130.35627 40043 ft 432 kts 215°
2026-04-17 12:26 29.94758 130.32184 40033 ft 432 kts 215°
2026-04-17 12:26 29.89544 130.28725 40037 ft 433 kts 215°
2026-04-17 12:27 29.84323 130.25264 40049 ft 433 kts 215°
2026-04-17 12:27 29.79096 130.21804 40035 ft 433 kts 215°
2026-04-17 12:28 29.73912 130.18375 40031 ft 433 kts 215°
2026-04-17 12:28 29.68690 130.14925 40027 ft 433 kts 215°
2026-04-17 12:29 29.63461 130.11473 40028 ft 434 kts 215°
2026-04-17 12:29 29.58224 130.08024 40029 ft 434 kts 215°
2026-04-17 12:30 29.53014 130.04604 40027 ft 434 kts 215°
2026-04-17 12:30 29.47780 130.01162 40025 ft 433 kts 215°
2026-04-17 12:31 29.42553 129.97728 40025 ft 433 kts 215°
2026-04-17 12:31 29.37329 129.94303 40023 ft 433 kts 215°
2026-04-17 12:32 29.32102 129.90880 40020 ft 434 kts 214°
2026-04-17 12:32 29.26888 129.87470 40022 ft 435 kts 214°
2026-04-17 12:33 29.21635 129.84040 40015 ft 435 kts 214°
2026-04-17 12:33 29.16383 129.80615 39992 ft 435 kts 214°
2026-04-17 12:34 29.11122 129.77186 40015 ft 435 kts 214°
2026-04-17 12:34 29.05859 129.73762 40013 ft 435 kts 214°
2026-04-17 12:35 29.00628 129.70361 40014 ft 435 kts 214°
2026-04-17 12:35 28.95359 129.66940 40007 ft 436 kts 214°
2026-04-17 12:37 28.74239 129.53269 40009 ft 437 kts 214°
2026-04-17 12:38 28.68941 129.49850 40008 ft 437 kts 214°
2026-04-17 12:38 28.63648 129.46438 40001 ft 437 kts 214°
2026-04-17 12:39 28.58388 129.43050 40000 ft 438 kts 213°
2026-04-17 12:39 28.53079 129.39635 40001 ft 438 kts 213°
2026-04-17 12:40 28.47766 129.36222 40004 ft 439 kts 213°
2026-04-17 12:40 28.42454 129.32815 39990 ft 438 kts 213°
2026-04-17 12:41 28.37141 129.29409 39997 ft 439 kts 213°
2026-04-17 12:41 28.31862 129.26029 40009 ft 439 kts 213°
2026-04-17 12:42 28.26547 129.22631 39997 ft 438 kts 213°
2026-04-17 12:42 28.21229 129.19235 39999 ft 439 kts 213°
2026-04-17 12:43 28.15907 129.15839 40000 ft 440 kts 213°
2026-04-17 12:43 28.10604 129.12460 39997 ft 440 kts 213°
2026-04-17 12:44 28.05269 129.09065 39980 ft 439 kts 213°
2026-04-17 12:44 27.99936 129.05674 39993 ft 440 kts 213°
2026-04-17 12:45 27.94601 129.02286 39986 ft 440 kts 213°
2026-04-17 12:45 27.89296 128.98921 39990 ft 440 kts 213°
2026-04-17 12:46 27.83956 128.95538 39988 ft 440 kts 213°
2026-04-17 12:46 27.78609 128.92154 39990 ft 441 kts 213°
2026-04-17 12:47 27.73269 128.88780 39691 ft 439 kts 213°
2026-04-17 12:47 27.70632 128.87114 39452 ft 441 kts 213°
2026-04-17 12:47 27.67973 128.85436 38993 ft 437 kts 213°
2026-04-17 12:47 27.65323 128.83767 38317 ft 436 kts 213°
2026-04-17 12:48 27.62674 128.82097 37621 ft 435 kts 213°
2026-04-17 12:48 27.60035 128.80435 36944 ft 435 kts 213°
2026-04-17 12:48 27.57395 128.78772 36259 ft 434 kts 213°
2026-04-17 12:48 27.54757 128.77112 35568 ft 435 kts 213°
2026-04-17 12:49 27.52108 128.75445 34847 ft 437 kts 213°
2026-04-17 12:49 27.49443 128.73768 34038 ft 441 kts 213°
2026-04-17 12:49 27.46799 128.72086 33130 ft 443 kts 215°
2026-04-17 12:49 27.44317 128.70062 32244 ft 440 kts 225°
2026-04-17 12:50 27.42235 128.67554 31375 ft 438 kts 236°
2026-04-17 12:50 27.40515 128.64726 30496 ft 439 kts 239°
2026-04-17 12:50 27.38904 128.61797 29602 ft 440 kts 241°
2026-04-17 12:50 27.37363 128.58854 28960 ft 433 kts 242°
2026-04-17 12:51 27.35867 128.55948 28352 ft 426 kts 242°
2026-04-17 12:51 27.34391 128.53079 27727 ft 421 kts 242°
2026-04-17 12:51 27.32944 128.50284 27109 ft 417 kts 241°
2026-04-17 12:51 27.31481 128.47478 26472 ft 415 kts 241°
2026-04-17 12:52 27.30018 128.44690 25882 ft 413 kts 241°
2026-04-17 12:52 27.28561 128.41925 25269 ft 410 kts 240°
2026-04-17 12:52 27.27112 128.39184 24656 ft 406 kts 240°
2026-04-17 12:52 27.25761 128.36631 24092 ft 403 kts 240°
2026-04-17 12:53 27.24333 128.33934 23486 ft 400 kts 240°
2026-04-17 12:53 27.22918 128.31261 22788 ft 396 kts 240°
2026-04-17 12:53 27.21535 128.28652 22196 ft 391 kts 240°
2026-04-17 12:53 27.20152 128.26043 21608 ft 387 kts 240°
2026-04-17 12:54 27.18777 128.23452 21007 ft 385 kts 240°
2026-04-17 12:54 27.17408 128.20869 20405 ft 384 kts 240°
2026-04-17 12:54 27.16046 128.18304 19848 ft 382 kts 240°
2026-04-17 12:54 27.14691 128.15752 19302 ft 379 kts 240°
2026-04-17 12:55 27.13346 128.13214 18766 ft 377 kts 240°
2026-04-17 12:55 27.12008 128.10693 18183 ft 378 kts 240°
2026-04-17 12:55 27.10672 128.08181 17480 ft 383 kts 240°
2026-04-17 12:55 27.09287 128.05584 17025 ft 391 kts 240°
2026-04-17 12:56 27.07888 128.02965 16577 ft 391 kts 240°
2026-04-17 12:56 27.06496 128.00357 16125 ft 388 kts 240°
2026-04-17 12:56 27.05115 127.97770 15674 ft 386 kts 240°
2026-04-17 12:56 27.03741 127.95195 15242 ft 384 kts 240°
2026-04-17 12:57 27.02358 127.92647 14816 ft 382 kts 238°
2026-04-17 12:57 27.00652 127.90367 14398 ft 384 kts 224°
2026-04-17 12:57 26.98429 127.88692 13951 ft 386 kts 211°
2026-04-17 12:57 26.96071 127.87332 13465 ft 386 kts 210°
2026-04-17 12:58 26.93671 127.85992 13013 ft 384 kts 210°
2026-04-17 12:58 26.91289 127.84657 12565 ft 382 kts 210°
2026-04-17 12:58 26.88921 127.83322 12127 ft 380 kts 210°
2026-04-17 12:58 26.86567 127.81990 11680 ft 378 kts 210°
2026-04-17 12:59 26.84221 127.80660 11247 ft 377 kts 210°
2026-04-17 12:59 26.81916 127.79354 10949 ft 360 kts 210°
2026-04-17 12:59 26.79789 127.78156 10668 ft 327 kts 210°
2026-04-17 12:59 26.77858 127.77066 10275 ft 304 kts 211°
2026-04-17 13:00 26.76034 127.76033 9847 ft 285 kts 211°
2026-04-17 13:00 26.74293 127.75044 9370 ft 281 kts 211°
2026-04-17 13:00 26.72553 127.74051 9036 ft 279 kts 211°
2026-04-17 13:00 26.70832 127.73072 8718 ft 276 kts 210°
2026-04-17 13:01 26.69126 127.72104 8396 ft 274 kts 210°
2026-04-17 13:01 26.67447 127.71120 8077 ft 270 kts 214°
2026-04-17 13:01 26.66135 127.69686 7789 ft 262 kts 240°
2026-04-17 13:01 26.65401 127.67844 7512 ft 259 kts 252°
2026-04-17 13:02 26.64835 127.65928 7210 ft 259 kts 254°
2026-04-17 13:02 26.64308 127.64042 6890 ft 256 kts 254°
2026-04-17 13:02 26.63945 127.62108 6466 ft 254 kts 270°
2026-04-17 13:02 26.64168 127.60234 6187 ft 234 kts 282°
2026-04-17 13:03 26.64546 127.58506 5741 ft 226 kts 284°
2026-04-17 13:03 26.64937 127.56822 5237 ft 222 kts 284°
2026-04-17 13:03 26.65325 127.55171 4737 ft 218 kts 284°
2026-04-17 13:03 26.65717 127.53534 4119 ft 218 kts 284°
2026-04-17 13:04 26.66126 127.51905 3554 ft 217 kts 284°
2026-04-17 13:04 26.66441 127.50270 2923 ft 214 kts 267°
2026-04-17 13:04 26.66027 127.48718 2376 ft 212 kts 233°
2026-04-17 13:04 26.64894 127.47729 2077 ft 211 kts 199°
2026-04-17 13:05 26.63471 127.47659 2001 ft 207 kts 167°
2026-04-17 13:05 26.62135 127.48266 2004 ft 210 kts 155°
2026-04-17 13:05 26.60876 127.49113 2012 ft 212 kts 144°
2026-04-17 13:05 26.59766 127.50184 2016 ft 211 kts 140°
2026-04-17 13:06 26.58698 127.51308 2016 ft 211 kts 138°
2026-04-17 13:06 26.57644 127.52452 2014 ft 212 kts 138°
2026-04-17 13:06 26.56535 127.53664 2030 ft 236 kts 137°
2026-04-17 13:06 26.55326 127.54992 2022 ft 249 kts 137°
2026-04-17 13:07 26.54101 127.56350 2023 ft 253 kts 136°
2026-04-17 13:07 26.52850 127.57736 2013 ft 252 kts 136°
2026-04-17 13:07 26.51619 127.59103 2019 ft 243 kts 137°
2026-04-17 13:07 26.50428 127.60338 2017 ft 225 kts 144°
2026-04-17 13:08 26.49112 127.61144 2013 ft 211 kts 160°
2026-04-17 13:08 26.47700 127.61566 2024 ft 210 kts 171°
2026-04-17 13:08 26.46254 127.61741 2030 ft 209 kts 176°
2026-04-17 13:08 26.44842 127.61825 2018 ft 196 kts 178°
2026-04-17 13:09 26.43540 127.61896 2012 ft 179 kts 177°
2026-04-17 13:09 26.42365 127.61963 2037 ft 166 kts 177°
2026-04-17 13:09 26.41254 127.62031 2029 ft 157 kts 176°
2026-04-17 13:09 26.40169 127.62098 2002 ft 155 kts 176°
2026-04-17 13:10 26.39089 127.62165 1897 ft 157 kts 176°
2026-04-17 13:10 26.37997 127.62231 1783 ft 157 kts 176°
2026-04-17 13:10 26.36915 127.62294 1690 ft 155 kts 176°
2026-04-17 13:10 26.35862 127.62356 1640 ft 149 kts 176°
2026-04-17 13:11 26.34841 127.62415 1557 ft 145 kts 176°
2026-04-17 13:11 26.33840 127.62472 1426 ft 142 kts 176°
2026-04-17 13:11 26.32873 127.62529 1299 ft 137 kts 176°
2026-04-17 13:11 26.31928 127.62584 1221 ft 138 kts 176°
2026-04-17 13:12 26.30984 127.62640 1207 ft 134 kts 177°
2026-04-17 13:12 26.29169 127.62746 1199 ft 131 kts 177°
2026-04-17 13:12 26.28259 127.62799 1199 ft 131 kts 177°
2026-04-17 13:13 26.27349 127.62852 1201 ft 131 kts 177°
2026-04-17 13:13 26.26454 127.62904 1195 ft 128 kts 176°
2026-04-17 13:13 26.25572 127.62956 1039 ft 126 kts 176°
2026-04-17 13:13 26.24711 127.63007 886 ft 126 kts 175°
2026-04-17 13:14 26.23834 127.63058 734 ft 127 kts 175°
2026-04-17 13:14 26.22952 127.63110 575 ft 127 kts 174°
2026-04-17 13:14 26.22079 127.63167 400 ft 125 kts 174°
2026-04-17 13:14 26.21216 127.63203 259 ft 124 kts 175°
2026-04-17 13:15 26.20354 127.63249 99 ft 125 kts 174°
2026-04-17 13:15 26.19511 127.63277 29 ft 112 kts 168°
2026-04-17 13:15 26.18917 127.63308 22 ft 54 kts 177°
2026-04-17 13:15 26.18669 127.63319 24 ft 31 kts 176°
2026-04-17 13:16 26.18474 127.63380 25 ft 28 kts 153°
2026-04-17 13:16 26.18376 127.63449 28 ft 7 kts 131°
2026-04-17 13:16 26.18370 127.63508 26 ft 8 kts 67°
2026-04-17 13:16 26.18423 127.63526 25 ft 10 kts 354°
2026-04-17 13:17 26.18510 127.63516 24 ft 15 kts 354°
2026-04-17 13:17 26.18635 127.63505 24 ft 20 kts 360°
2026-04-17 13:17 26.18792 127.63502 24 ft 25 kts 358°
2026-04-17 13:17 26.18981 127.63495 25 ft 29 kts 357°
2026-04-17 13:18 26.19196 127.63486 25 ft 33 kts 358°
2026-04-17 13:18 26.19431 127.63473 25 ft 36 kts 357°
2026-04-17 13:18 26.19692 127.63461 29 ft 39 kts 358°
2026-04-17 13:18 26.19880 127.63452 26 ft 0 kts 358°
2026-04-17 13:19 26.19918 127.63451 25 ft 14 kts 358°
2026-04-17 13:19 26.20063 127.63444 24 ft 24 kts 358°
2026-04-17 13:19 26.20202 127.63438 25 ft 19 kts 358°
2026-04-17 13:19 26.20303 127.63500 28 ft 18 kts 85°
2026-04-17 13:20 26.20306 127.63654 27 ft 22 kts 88°
2026-04-17 13:20 26.20312 127.63835 23 ft 25 kts 88°
2026-04-17 13:20 26.20319 127.64037 27 ft 26 kts 88°
2026-04-17 13:20 26.20326 127.64249 24 ft 29 kts 88°
2026-04-17 13:21 26.20335 127.64424 28 ft 20 kts 87°
2026-04-17 13:21 26.20342 127.64574 24 ft 17 kts 87°
2026-04-17 13:21 26.20347 127.64684 27 ft 17 kts 87°
2026-04-17 13:21 26.20351 127.64810 28 ft 17 kts 88°
2026-04-17 13:22 26.20352 127.64845 26 ft 0 kts 88°
2026-04-17 13:22 26.20356 127.64879 27 ft 8 kts 76°
2026-04-17 13:22 26.20397 127.64914 28 ft 9 kts 26°
2026-04-17 13:22 26.20422 127.64928 28 ft 1 kts 27°
2026-04-17 13:23 26.20433 127.64934 28 ft 0 kts 27°